Location: downtown San Diego
(32.7310°N, 117.1990°W)
Time: 03:24:50
(UTC-08:00)

Cosmos 1697 Rocket - Pass Details

Date: 12 July 2018
Orbit: 831 x 845 km, 71.0° (Epoch: 18 December)

Event Time Altitude Azimuth Distance (km) Brightness Sun altitude
Exits shadow 23:42:37 34° 37° (NE) 1,346 3.9 -32.8°
Drops below altitude 10° 23:45:49 10° 27° (NNE) 2,463 5.6 -33.0°
Sets 23:48:17 0° 24° (NNE) 3,399 6.4 -33.2°
